period_start,C,m1,H,J0,J1,J2,J3,J4,J5,JA,JB,JC,JD,JJ,JK,JN,#
2013-08-30 00:00:51,0.05,0.81,0.00,24.27,30.05,32.55,5.93,29.58,1010.73,2039.05,3126.07,3111.11,3352.00,349.57,320.32,31.83,0000 0000 0000 0000 000000
2013-08-30 00:01:51,-0.01,0.81,0.00,24.25,30.04,32.55,5.76,29.58,1010.74,2039.07,3126.03,3111.07,3352.00,349.34,320.56,31.83,0000 0000 0000 0000 000000
2013-08-30 00:02:52,0.03,0.81,0.00,24.22,30.03,32.52,6.03,29.67,1010.73,2039.11,3126.00,3111.02,3352.00,350.64,321.35,31.84,0000 0000 0000 0000 000000
2013-08-30 00:03:52,0.07,0.81,0.00,24.21,30.02,32.51,6.03,29.75,1010.73,2039.17,3125.99,3111.03,3352.00,350.47,321.21,31.85,0000 0000 0000 0000 000000
2013-08-30 00:04:52,0.05,0.81,0.00,24.18,30.02,32.53,5.82,29.67,1010.73,2039.31,3125.99,3111.02,3352.00,349.29,320.17,31.85,0000 0000 0000 0000 000000
2013-08-30 00:05:52,0.09,0.81,0.00,24.15,30.00,32.51,5.93,29.58,1010.72,2039.41,3125.97,3111.01,3351.99,350.41,321.22,31.86,0000 0000 0000 0000 000000
2013-08-30 00:06:53,0.09,0.81,0.00,24.13,30.00,32.52,6.04,29.63,1010.74,2039.53,3125.95,3111.01,3351.99,350.68,321.49,31.86,0000 0000 0000 0000 000000
2013-08-30 00:07:53,0.12,0.81,0.00,24.11,30.00,32.47,6.07,29.67,1010.74,2039.65,3125.94,3111.01,3351.99,350.52,321.37,31.87,0000 0000 0000 0000 000000
2013-08-30 00:08:53,0.09,0.81,0.00,24.10,29.98,32.42,6.04,29.63,1010.71,2039.76,3125.87,3111.01,3351.99,350.37,320.70,31.88,0000 0000 0000 0000 000000
2013-08-30 00:09:54,0.09,0.81,0.00,24.12,29.97,32.39,5.93,29.63,1010.68,2039.87,3125.83,3111.02,3351.99,349.38,320.33,31.88,0000 0000 0000 0000 000000
2013-08-30 00:10:54,0.07,0.81,0.00,24.16,29.97,32.37,6.13,29.79,1010.71,2039.94,3125.61,3111.02,3351.99,350.86,321.69,31.89,0000 0000 0000 0000 000000
2013-08-30 00:11:54,0.09,0.81,0.00,24.19,29.95,32.39,5.92,29.75,1010.59,2039.97,3125.33,3111.00,3351.99,349.66,320.45,31.89,0000 0000 0000 0000 000000
2013-08-30 00:12:55,0.06,0.81,0.00,24.21,29.95,32.33,6.00,29.67,1010.45,2039.97,3125.22,3111.00,3351.99,349.99,320.68,31.90,0000 0000 0000 0000 000000
2013-08-30 00:13:55,0.02,0.81,0.00,24.25,29.94,32.29,5.93,29.63,1010.36,2039.99,3125.17,3111.01,3351.98,350.59,321.17,31.90,0000 0000 0000 0000 000000
2013-08-30 00:14:55,0.01,0.81,0.00,24.27,29.92,32.27,5.92,29.63,1010.32,2039.99,3125.23,3111.00,3351.98,350.61,321.14,31.91,0000 0000 0000 0000 000000
2013-08-30 00:15:55,0.00,0.81,0.00,24.30,29.92,32.27,6.06,29.63,1010.31,2039.99,3125.26,3111.02,3351.97,351.01,321.47,31.92,0000 0000 0000 0000 000000
2013-08-30 00:16:55,0.00,0.81,0.00,24.35,29.91,32.32,5.87,29.50,1010.29,2039.99,3125.12,3111.01,3351.95,349.82,320.10,31.92,0000 0000 0000 0000 000000
2013-08-30 00:17:56,0.02,0.81,0.00,24.38,29.90,32.32,6.01,29.63,1010.32,2039.99,3125.04,3111.00,3351.95,349.91,320.39,31.93,0000 0000 0000 0000 000000
2013-08-30 00:18:56,0.00,0.81,0.00,24.41,29.90,32.37,5.98,29.75,1010.29,2039.99,3125.01,3111.00,3351.96,349.69,319.92,31.93,0000 0000 0000 0000 000000
2013-08-30 00:19:56,0.00,0.81,0.00,24.42,29.88,32.34,5.99,29.63,1010.31,2039.99,3125.00,3111.00,3351.95,350.46,320.67,31.94,0000 0000 0000 0000 000000
2013-08-30 00:20:56,0.00,0.81,0.00,24.43,29.87,32.37,5.79,29.58,1010.32,2039.99,3125.00,3111.00,3351.96,348.96,319.51,31.95,0000 0000 0000 0000 000000
2013-08-30 00:21:56,0.00,0.81,0.00,24.42,29.87,32.36,5.90,29.54,1010.34,2039.99,3125.00,3111.00,3351.95,349.22,319.72,31.95,0000 0000 0000 0000 000000
2013-08-30 00:22:56,0.00,0.81,0.00,24.39,29.85,32.31,5.89,29.63,1010.37,2039.99,3125.00,3111.00,3351.96,350.00,320.47,31.96,0000 0000 0000 0000 000000
2013-08-30 00:23:57,0.00,0.81,0.00,24.36,29.85,32.30,6.01,29.71,1010.32,2040.00,3125.00,3111.00,3351.98,350.14,320.66,31.96,0000 0000 0000 0000 000000
2013-08-30 00:24:57,0.00,0.81,0.00,24.34,29.84,32.29,5.85,29.63,1010.30,2040.00,3124.99,3111.00,3351.97,349.92,320.67,31.97,0000 0000 0000 0000 000000
2013-08-30 00:25:57,0.00,0.81,0.00,24.32,29.82,32.23,6.06,29.71,1010.30,2040.00,3124.99,3111.00,3351.96,350.64,321.11,31.97,0000 0000 0000 0000 000000
2013-08-30 00:26:57,0.00,0.81,0.00,24.30,29.82,32.25,5.92,29.67,1010.28,2040.01,3124.92,3111.00,3351.94,349.53,320.46,31.98,0000 0000 0000 0000 000000
2013-08-30 00:27:57,0.02,0.81,0.00,24.28,29.81,32.26,5.98,29.67,1010.28,2040.00,3124.94,3111.00,3351.95,350.42,320.94,31.99,0000 0000 0000 0000 000000
2013-08-30 00:28:57,-0.01,0.81,0.00,24.26,29.80,32.25,5.99,29.63,1010.28,2040.00,3124.63,3111.00,3351.82,350.88,320.98,31.99,0000 0000 0000 0000 000000
2013-08-30 00:29:57,0.08,0.81,0.00,24.24,29.80,32.21,5.85,29.63,1010.27,2040.01,3124.30,3111.00,3351.73,349.72,320.57,32.00,0000 0000 0000 0000 000000
2013-08-30 00:30:58,0.07,0.81,0.00,24.22,29.78,32.17,6.14,29.67,1010.29,2040.05,3124.26,3111.00,3351.73,350.66,320.87,32.00,0000 0000 0000 0000 000000
2013-08-30 00:31:58,0.01,0.81,0.00,24.21,29.77,32.15,6.00,29.75,1010.28,2040.06,3124.11,3111.00,3351.59,350.17,320.79,32.01,0000 0000 0000 0000 000000
2013-08-30 00:32:58,0.05,0.81,0.00,24.21,29.77,32.14,6.00,29.58,1010.28,2040.07,3124.04,3111.00,3351.41,349.97,320.71,32.02,0000 0000 0000 0000 000000
2013-08-30 00:33:58,0.03,0.81,0.00,24.20,29.77,32.16,5.94,29.63,1010.28,2040.09,3124.02,3111.00,3351.36,350.01,320.41,32.02,0000 0000 0000 0000 000000
2013-08-30 00:34:58,0.03,0.81,0.00,24.19,29.75,32.14,5.89,29.63,1010.28,2040.14,3124.02,3110.99,3351.20,349.48,320.40,32.03,0000 0000 0000 0000 000000
2013-08-30 00:35:58,0.04,0.81,0.00,24.19,29.75,32.12,6.08,29.75,1010.27,2040.25,3124.00,3110.99,3351.13,350.33,321.37,32.03,0000 0000 0000 0000 000000
2013-08-30 00:36:59,0.13,0.82,0.00,24.21,29.74,32.13,5.97,29.71,1010.27,2040.33,3124.00,3110.99,3351.09,349.87,319.98,32.04,0000 0000 0000 0000 000000
2013-08-30 00:37:59,0.03,0.82,0.00,24.22,29.72,32.10,5.81,29.71,1010.27,2040.55,3124.00,3110.98,3351.08,350.22,320.86,32.04,0000 0000 0000 0000 000000
2013-08-30 00:38:59,0.19,0.82,0.00,24.24,29.72,32.04,6.06,29.71,1010.27,2040.71,3123.98,3110.98,3351.10,350.33,320.98,32.05,0000 0000 0000 0000 000000
2013-08-30 00:39:59,0.14,0.82,0.00,24.25,29.72,32.05,5.99,29.71,1010.27,2040.66,3123.96,3110.97,3351.07,350.12,320.96,32.06,0000 0000 0000 0000 000000
2013-08-30 00:40:59,-0.02,0.82,0.00,24.26,29.70,32.06,5.87,30.04,1010.27,2040.69,3123.89,3110.98,3351.04,349.72,320.32,32.06,0000 0000 0000 0000 000000
2013-08-30 00:42:00,0.03,0.82,0.00,24.25,29.70,32.06,6.06,29.96,1010.27,2040.73,3123.55,3110.96,3351.03,350.90,321.42,32.07,0000 0000 0000 0000 000000
2013-08-30 00:43:00,0.08,0.82,0.00,24.25,29.69,32.03,5.97,30.13,1010.27,2040.82,3123.28,3110.91,3351.01,350.72,321.26,32.07,0000 0000 0000 0000 000000
2013-08-30 00:44:00,0.13,0.82,0.00,24.22,29.68,32.01,6.01,29.96,1010.27,2040.91,3123.16,3110.93,3351.01,350.58,321.16,32.08,0000 0000 0000 0000 000000
2013-08-30 00:45:00,0.06,0.82,0.00,24.19,29.67,32.03,5.87,29.58,1010.27,2040.93,3123.17,3110.95,3351.01,349.42,320.12,32.09,0000 0000 0000 0000 000000
2013-08-30 00:46:00,0.00,0.82,0.00,24.17,29.67,31.99,5.98,29.75,1010.27,2040.95,3123.11,3110.94,3351.00,350.64,321.27,32.09,0000 0000 0000 0000 000000
2013-08-30 00:47:01,0.03,0.82,0.00,24.15,29.65,31.98,6.01,29.75,1010.27,2040.98,3123.06,3110.97,3351.00,349.59,320.32,32.10,0000 0000 0000 0000 000000
2013-08-30 00:48:01,0.02,0.82,0.00,24.14,29.65,32.04,5.83,29.71,1010.26,2040.99,3123.02,3110.99,3351.00,349.23,319.89,32.10,0000 0000 0000 0000 000000
2013-08-30 00:49:01,0.00,0.82,0.00,24.14,29.64,32.05,5.92,29.71,1010.27,2040.99,3123.00,3110.99,3351.02,350.15,320.85,32.11,0000 0000 0000 0000 000000
2013-08-30 00:50:01,0.00,0.82,0.00,24.13,29.63,32.04,6.04,29.83,1010.27,2040.99,3123.00,3110.99,3351.01,350.70,320.99,32.12,0000 0000 0000 0000 000000
2013-08-30 00:51:01,0.00,0.82,0.00,24.13,29.62,32.08,5.96,29.50,1010.27,2040.99,3123.00,3110.96,3351.00,350.63,321.30,32.12,0000 0000 0000 0000 000000
2013-08-30 00:52:01,0.00,0.82,0.00,24.12,29.62,32.09,6.00,29.79,1010.27,2040.99,3123.00,3110.94,3351.00,349.69,320.45,32.13,0000 0000 0000 0000 000000
2013-08-30 00:53:02,0.00,0.82,0.00,24.12,29.60,32.04,5.98,29.63,1010.27,2040.99,3122.99,3110.89,3351.00,350.35,321.13,32.13,0000 0000 0000 0000 000000
2013-08-30 00:54:02,0.01,0.82,0.00,24.12,29.60,32.00,5.89,29.71,1010.27,2040.99,3122.99,3110.78,3351.00,350.29,321.05,32.14,0000 0000 0000 0000 000000
2013-08-30 00:55:02,0.02,0.82,0.00,24.11,29.60,31.97,5.88,29.63,1010.27,2040.99,3122.92,3110.72,3350.99,350.07,320.79,32.14,0000 0000 0000 0000 000000
2013-08-30 00:56:03,0.03,0.82,0.00,24.12,29.58,31.93,6.03,29.71,1010.26,2040.99,3122.93,3110.74,3350.99,350.32,321.02,32.15,0000 0000 0000 0000 000000
2013-08-30 00:57:03,-0.01,0.82,0.00,24.10,29.57,31.93,5.97,29.63,1010.24,2041.00,3122.89,3110.83,3350.99,350.52,321.22,32.16,0000 0000 0000 0000 000000
2013-08-30 00:58:03,-0.02,0.82,0.00,24.09,29.57,31.96,5.98,29.67,1010.21,2041.02,3122.76,3110.83,3350.99,350.58,321.27,32.16,0000 0000 0000 0000 000000
2013-08-30 00:59:03,0.04,0.82,0.00,24.07,29.56,31.97,5.91,29.75,1010.23,2041.05,3122.40,3110.78,3350.99,349.88,320.54,32.17,0000 0000 0000 0000 000000
2013-08-30 01:00:03,0.10,0.82,0.00,24.07,29.55,31.98,5.90,29.63,1010.21,2041.02,3122.20,3110.76,3350.99,349.98,321.02,32.17,0000 0000 0000 0000 000000
2013-08-30 01:01:04,0.00,0.82,0.00,24.06,29.55,31.98,5.92,29.67,1010.20,2041.05,3122.11,3110.73,3350.98,350.29,321.44,32.18,0000 0000 0000 0000 000000
2013-08-30 01:02:04,0.06,0.82,0.00,24.05,29.54,31.96,5.95,29.71,1010.17,2041.08,3122.04,3110.64,3350.99,349.52,320.58,32.19,0000 0000 0000 0000 000000
2013-08-30 01:03:04,0.03,0.82,0.00,24.04,29.52,31.95,5.98,29.71,1010.17,2041.14,3122.01,3110.57,3350.97,350.96,321.40,32.19,0000 0000 0000 0000 000000
2013-08-30 01:04:04,0.04,0.82,0.00,24.04,29.52,31.92,5.93,29.88,1010.14,2041.32,3122.01,3110.70,3350.98,349.20,320.05,32.20,0000 0000 0000 0000 000000
2013-08-30 01:05:04,0.16,0.82,0.00,24.03,29.52,31.97,5.83,29.75,1010.08,2041.47,3122.01,3110.75,3350.99,350.38,321.12,32.20,0000 0000 0000 0000 000000
2013-08-30 01:06:05,0.07,0.82,0.00,24.01,29.50,31.97,6.08,29.67,1010.10,2041.61,3122.00,3110.78,3350.99,350.60,321.35,32.21,0000 0000 0000 0000 000000
2013-08-30 01:07:05,0.16,0.82,0.00,24.00,29.50,31.91,5.93,29.88,1010.11,2041.76,3122.00,3110.75,3350.99,349.47,320.32,32.21,0000 0000 0000 0000 000000
2013-08-30 01:08:05,0.09,0.82,0.00,24.00,29.50,31.89,6.12,29.54,1010.11,2041.87,3122.00,3110.74,3350.99,350.40,321.18,32.22,0000 0000 0000 0000 000000
2013-08-30 01:09:05,0.08,0.83,0.00,23.99,29.48,31.87,5.96,29.71,1010.11,2041.88,3122.00,3110.68,3350.99,349.73,320.57,32.23,0000 0000 0000 0000 000000
2013-08-30 01:10:06,0.01,0.83,0.00,24.00,29.47,31.85,5.93,29.79,1010.03,2041.88,3122.00,3110.47,3350.99,349.81,320.38,32.23,0000 0000 0000 0000 000000
2013-08-30 01:11:06,0.04,0.83,0.00,23.98,29.47,31.85,6.03,30.00,1010.06,2041.93,3121.99,3110.40,3350.96,350.66,321.74,32.24,0000 0000 0000 0000 000000
2013-08-30 01:12:06,0.05,0.83,0.00,23.97,29.46,31.82,5.88,29.75,1010.01,2041.96,3121.96,3110.52,3350.98,349.49,320.65,32.24,0000 0000 0000 0000 000000
2013-08-30 01:13:06,0.00,0.83,0.00,23.97,29.45,31.82,6.10,29.75,1010.02,2041.98,3121.97,3110.61,3350.99,350.84,321.20,32.25,0000 0000 0000 0000 000000
2013-08-30 01:14:07,0.00,0.83,0.00,23.98,29.45,31.85,5.85,29.71,1009.96,2041.99,3121.97,3110.57,3350.99,349.15,320.00,32.26,0000 0000 0000 0000 000000
2013-08-30 01:15:07,0.01,0.83,0.00,23.98,29.44,31.86,5.85,29.79,1009.97,2041.99,3121.85,3110.50,3350.98,349.63,320.58,32.26,0000 0000 0000 0000 000000
2013-08-30 01:16:07,0.04,0.83,0.00,23.99,29.42,31.90,6.07,29.71,1009.96,2041.99,3121.46,3110.33,3350.97,350.63,321.23,32.27,0000 0000 0000 0000 000000
2013-08-30 01:17:07,0.09,0.83,0.00,23.99,29.42,31.90,5.98,29.63,1009.90,2041.99,3121.20,3110.28,3350.95,350.27,320.63,32.27,0000 0000 0000 0000 000000
2013-08-30 01:18:08,0.05,0.83,0.00,23.97,29.42,31.93,6.02,29.67,1009.87,2041.99,3121.08,3110.21,3350.93,350.55,320.87,32.28,0000 0000 0000 0000 000000
2013-08-30 01:19:08,0.03,0.83,0.00,23.98,29.40,31.91,5.99,29.67,1009.87,2041.99,3121.03,3110.13,3350.89,350.63,321.34,32.28,0000 0000 0000 0000 000000
2013-08-30 01:20:08,0.02,0.83,0.00,23.97,29.40,31.89,5.77,29.71,1009.90,2041.99,3121.01,3110.11,3350.85,350.06,320.82,32.29,0000 0000 0000 0000 000000
2013-08-30 01:21:08,0.01,0.83,0.00,23.97,29.40,31.84,5.96,29.71,1009.88,2041.99,3121.00,3110.06,3350.71,350.22,321.40,32.30,0000 0000 0000 0000 000000
2013-08-30 01:22:08,0.03,0.83,0.00,24.00,29.38,31.80,5.93,29.71,1009.90,2041.99,3121.00,3110.06,3350.59,348.97,320.38,32.30,0000 0000 0000 0000 000000
2013-08-30 01:23:09,0.00,0.83,0.00,24.01,29.37,31.77,6.02,29.71,1009.89,2041.99,3121.00,3110.04,3350.46,349.99,320.99,32.31,0000 0000 0000 0000 000000
2013-08-30 01:24:09,0.02,0.83,0.00,24.00,29.37,31.76,6.06,29.83,1009.89,2042.00,3120.93,3110.03,3350.43,349.97,321.01,32.31,0000 0000 0000 0000 000000
2013-08-30 01:25:09,0.02,0.83,0.00,24.00,29.37,31.76,5.92,29.75,1009.85,2042.00,3120.72,3110.01,3350.28,350.12,321.05,32.32,0000 0000 0000 0000 000000
2013-08-30 01:26:09,0.06,0.83,0.00,24.01,29.35,31.80,5.92,29.75,1009.85,2042.00,3120.58,3110.03,3350.30,350.05,320.75,32.33,0000 0000 0000 0000 000000
2013-08-30 01:27:09,0.01,0.83,0.00,24.02,29.35,31.79,5.88,29.88,1009.81,2042.00,3120.27,3110.02,3350.16,349.60,320.33,32.33,0000 0000 0000 0000 000000
2013-08-30 01:28:10,0.07,0.83,0.00,24.00,29.35,31.80,6.05,29.67,1009.82,2042.00,3120.12,3110.00,3350.09,350.12,320.83,32.34,0000 0000 0000 0000 000000
2013-08-30 01:29:10,0.03,0.83,0.00,24.00,29.33,31.83,6.13,29.71,1009.84,2042.03,3120.07,3110.00,3350.06,350.61,321.29,32.34,0000 0000 0000 0000 000000
2013-08-30 01:30:10,0.03,0.83,0.00,24.00,29.32,31.79,6.03,29.71,1009.84,2042.04,3120.03,3110.00,3350.04,349.37,320.15,32.35,0000 0000 0000 0000 000000
2013-08-30 01:31:10,0.01,0.83,0.00,23.98,29.32,31.78,5.91,29.75,1009.85,2042.06,3120.00,3110.00,3350.06,349.43,320.21,32.35,0000 0000 0000 0000 000000
2013-08-30 01:32:11,0.02,0.83,0.00,23.99,29.32,31.79,6.13,29.75,1009.86,2042.06,3120.00,3110.00,3350.03,350.34,321.05,32.36,0000 0000 0000 0000 000000
2013-08-30 01:33:11,0.00,0.83,0.00,23.99,29.30,31.73,5.99,29.75,1009.86,2042.08,3120.00,3110.00,3350.03,350.42,321.26,32.37,0000 0000 0000 0000 000000
2013-08-30 01:34:11,0.00,0.83,0.00,23.99,29.30,31.73,5.91,29.79,1009.86,2042.12,3120.00,3110.01,3350.03,349.47,320.25,32.37,0000 0000 0000 0000 000000
2013-08-30 01:35:11,0.03,0.83,0.00,23.98,29.30,31.77,6.08,29.83,1009.82,2042.18,3119.98,3110.00,3350.01,350.47,321.05,32.38,0000 0000 0000 0000 000000
2013-08-30 01:36:12,0.08,0.83,0.00,23.98,29.28,31.73,6.02,29.71,1009.83,2042.30,3119.93,3110.00,3350.00,350.13,320.66,32.38,0000 0000 0000 0000 000000
2013-08-30 01:37:12,0.09,0.83,0.00,23.98,29.27,31.67,6.02,29.79,1009.80,2042.42,3119.63,3110.00,3350.00,350.26,320.97,32.39,0000 0000 0000 0000 000000
2013-08-30 01:38:12,0.13,0.83,0.00,23.97,29.27,31.71,5.92,29.63,1009.80,2042.46,3119.30,3110.00,3350.00,349.50,320.29,32.40,0000 0000 0000 0000 000000
2013-08-30 01:39:13,0.07,0.83,0.00,23.97,29.27,31.72,5.83,29.75,1009.81,2042.54,3119.13,3110.00,3350.00,349.33,320.01,32.40,0000 0000 0000 0000 000000
2013-08-30 01:40:13,0.09,0.83,0.00,23.97,29.25,31.72,5.99,29.75,1009.79,2042.79,3119.28,3110.00,3350.00,350.70,321.38,32.41,0000 0000 0000 0000 000000
2013-08-30 01:41:13,0.18,0.83,0.00,23.97,29.25,31.68,5.90,29.88,1009.79,2042.86,3119.21,3110.00,3350.00,350.12,320.59,32.41,0000 0000 0000 0000 000000
2013-08-30 01:42:13,0.07,0.83,0.00,24.00,29.25,31.63,5.93,30.00,1009.78,2042.90,3119.08,3109.99,3349.99,350.07,320.77,32.42,0000 0000 0000 0000 000000
2013-08-30 01:43:14,0.04,0.83,0.00,24.03,29.25,31.63,5.83,29.88,1009.79,2042.93,3119.03,3109.97,3349.99,349.18,320.34,32.43,0000 0000 0000 0000 000000
2013-08-30 01:44:14,0.02,0.83,0.00,24.05,29.23,31.67,5.73,29.88,1009.78,2042.92,3119.00,3109.97,3349.97,349.23,320.11,32.43,0000 0000 0000 0000 000000
2013-08-30 01:45:14,0.01,0.83,0.00,24.08,29.22,31.63,6.09,29.88,1009.79,2042.96,3119.00,3109.96,3349.96,350.79,321.35,32.44,0000 0000 0000 0000 000000
2013-08-30 01:46:14,0.03,0.83,0.00,24.11,29.22,31.56,5.90,29.83,1009.79,2042.98,3119.00,3109.96,3349.96,350.30,320.86,32.44,0000 0000 0000 0000 000000
2013-08-30 01:47:15,0.01,0.83,0.00,24.14,29.22,31.57,5.92,29.79,1009.79,2042.98,3118.99,3109.95,3349.96,350.44,320.70,32.45,0000 0000 0000 0000 000000
2013-08-30 01:48:15,0.00,0.83,0.00,24.16,29.21,31.63,6.05,29.83,1009.78,2042.98,3118.97,3109.93,3349.97,349.48,320.06,32.45,0000 0000 0000 0000 000000
2013-08-30 01:49:15,0.00,0.83,0.00,24.18,29.20,31.61,5.97,29.75,1009.78,2042.99,3118.99,3109.94,3349.97,349.63,320.18,32.46,0000 0000 0000 0000 000000
2013-08-30 01:50:15,0.00,0.83,0.00,24.21,29.20,31.61,5.79,29.96,1009.78,2042.98,3118.98,3109.90,3349.94,348.88,319.46,32.47,0000 0000 0000 0000 000000
2013-08-30 01:51:16,0.03,0.83,0.00,24.23,29.20,31.64,6.05,29.83,1009.78,2042.99,3118.91,3109.72,3349.83,351.21,321.04,32.47,0000 0000 0000 0000 000000
2013-08-30 01:52:16,0.08,0.84,0.00,24.24,29.20,31.60,5.87,29.79,1009.78,2042.99,3118.69,3109.59,3349.70,350.18,320.61,32.48,0000 0000 0000 0000 000000
2013-08-30 01:53:16,0.08,0.84,0.00,24.27,29.19,31.58,5.85,29.67,1009.78,2042.98,3118.32,3109.37,3349.47,350.03,320.41,32.48,0000 0000 0000 0000 000000
2013-08-30 01:54:16,0.11,0.84,0.00,24.30,29.18,31.49,5.88,29.88,1009.78,2042.99,3118.14,3109.28,3349.35,349.92,320.31,32.49,0000 0000 0000 0000 000000
2013-08-30 01:55:17,0.06,0.84,0.00,24.33,29.17,31.46,6.12,29.75,1009.77,2042.99,3118.05,3109.19,3349.20,350.33,320.42,32.50,0000 0000 0000 0000 000000
2013-08-30 01:56:17,0.04,0.84,0.00,24.35,29.17,31.44,5.95,29.79,1009.78,2042.99,3118.02,3109.13,3349.12,350.27,320.38,32.50,0000 0000 0000 0000 000000
2013-08-30 01:57:17,0.02,0.84,0.00,24.36,29.17,31.42,6.03,29.83,1009.78,2043.00,3118.00,3109.10,3349.09,350.26,320.86,32.51,0000 0000 0000 0000 000000
2013-08-30 01:58:18,0.01,0.84,0.00,24.37,29.17,31.40,6.01,29.88,1009.78,2043.00,3118.00,3109.08,3349.05,350.16,320.45,32.51,0000 0000 0000 0000 000000
2013-08-30 01:59:18,0.01,0.84,0.00,24.39,29.17,31.42,6.00,29.79,1009.78,2043.00,3118.00,3109.03,3349.04,350.56,320.34,32.52,0000 0000 0000 0000 000000
2013-08-30 02:00:18,0.01,0.84,0.00,24.42,29.16,31.41,5.99,29.75,1009.78,2043.00,3117.99,3109.03,3349.02,350.05,320.30,32.52,0000 0000 0000 0000 000000
2013-08-30 02:01:18,0.00,0.84,0.00,24.43,29.15,31.39,6.12,29.83,1009.78,2043.00,3117.97,3109.02,3349.00,350.47,320.89,32.53,0000 0000 0000 0000 000000
2013-08-30 02:02:19,0.01,0.84,0.00,24.44,29.15,31.37,5.93,29.83,1009.78,2043.00,3117.86,3109.01,3349.00,349.11,319.62,32.54,0000 0000 0000 0000 000000
2013-08-30 02:03:19,0.01,0.84,0.00,24.47,29.15,31.38,5.88,29.88,1009.76,2043.00,3117.65,3109.00,3349.00,349.59,320.40,32.54,0000 0000 0000 0000 000000
2013-08-30 02:04:19,0.03,0.84,0.00,24.49,29.15,31.35,5.91,29.88,1009.78,2043.01,3117.36,3109.00,3349.00,350.01,320.18,32.55,0000 0000 0000 0000 000000
2013-08-30 02:05:19,0.05,0.84,0.00,24.51,29.15,31.32,5.88,29.88,1009.74,2043.00,3117.16,3109.00,3349.00,349.72,319.89,32.55,0000 0000 0000 0000 000000
2013-08-30 02:06:20,0.02,0.84,0.00,24.53,29.15,31.32,5.92,29.79,1009.74,2043.00,3117.07,3109.00,3349.00,350.58,320.65,32.56,0000 0000 0000 0000 000000
2013-08-30 02:07:20,0.01,0.84,0.00,24.54,29.15,31.29,5.83,29.79,1009.74,2043.00,3117.05,3109.00,3349.00,350.68,320.73,32.57,0000 0000 0000 0000 000000
2013-08-30 02:08:20,0.00,0.84,0.00,24.55,29.15,31.28,5.70,29.88,1009.75,2043.00,3117.02,3109.00,3348.99,348.66,318.88,32.57,0000 0000 0000 0000 000000
2013-08-30 02:09:21,0.01,0.84,0.00,24.57,29.15,31.25,5.69,29.79,1009.71,2043.00,3117.00,3108.95,3348.94,349.18,319.07,32.58,0000 0000 0000 0000 000000
2013-08-30 02:10:21,0.02,0.84,0.00,24.59,29.15,31.27,5.97,29.79,1009.75,2043.02,3117.00,3108.95,3348.86,349.96,320.38,32.58,0000 0000 0000 0000 000000
2013-08-30 02:11:21,0.03,0.84,0.00,24.61,29.15,31.24,5.80,29.88,1009.72,2043.02,3117.00,3108.86,3348.65,349.66,319.73,32.59,0000 0000 0000 0000 000000
2013-08-30 02:12:22,0.03,0.84,0.00,24.61,29.15,31.19,5.73,29.79,1009.65,2043.01,3116.96,3108.75,3348.47,349.30,319.36,32.60,0000 0000 0000 0000 000000
2013-08-30 02:13:22,0.05,0.84,0.00,24.62,29.14,31.19,5.91,29.83,1009.58,2043.02,3116.68,3108.65,3348.26,350.62,320.91,32.60,0000 0000 0000 0000 000000
2013-08-30 02:14:22,0.08,0.84,0.00,24.64,29.14,31.20,5.82,29.79,1009.45,2043.05,3116.30,3108.53,3348.10,349.13,319.12,32.61,0000 0000 0000 0000 000000
2013-08-30 02:15:23,0.12,0.84,0.00,24.64,29.14,31.18,5.90,29.75,1009.43,2043.04,3116.11,3108.29,3348.03,349.70,319.62,32.61,0000 0000 0000 0000 000000
2013-08-30 02:16:23,0.08,0.84,0.00,24.66,29.14,31.17,6.01,29.88,1009.41,2043.02,3116.04,3108.13,3348.01,350.76,320.59,32.62,0000 0000 0000 0000 000000
2013-08-30 02:17:23,0.03,0.84,0.00,24.65,29.15,31.17,6.13,29.88,1009.42,2043.03,3116.00,3108.08,3348.00,350.97,320.84,32.62,0000 0000 0000 0000 000000
2013-08-30 02:18:23,0.03,0.84,0.00,24.65,29.15,31.16,6.15,29.88,1009.36,2043.05,3116.00,3108.03,3348.00,351.20,320.60,32.63,0000 0000 0000 0000 000000
2013-08-30 02:19:24,0.02,0.84,0.00,24.66,29.15,31.15,5.85,29.75,1009.38,2043.03,3115.98,3108.01,3347.99,349.24,319.56,32.64,0000 0000 0000 0000 000000
2013-08-30 02:20:24,0.00,0.84,0.00,24.70,29.15,31.17,5.89,29.79,1009.39,2043.03,3115.80,3108.00,3347.98,349.31,318.86,32.64,0000 0000 0000 0000 000000
2013-08-30 02:21:24,0.02,0.84,0.00,24.70,29.15,31.17,5.80,29.83,1009.34,2043.03,3115.52,3108.00,3347.97,349.68,319.52,32.65,0000 0000 0000 0000 000000
2013-08-30 02:22:25,0.02,0.84,0.00,24.73,29.15,31.24,5.91,29.79,1009.34,2043.05,3115.56,3108.00,3347.97,350.23,319.99,32.65,0000 0000 0000 0000 000000
2013-08-30 02:23:25,-0.00,0.84,0.00,24.75,29.15,31.28,5.83,29.83,1009.37,2043.03,3115.71,3108.00,3347.93,349.93,319.43,32.66,0000 0000 0000 0000 000000
2013-08-30 02:24:25,-0.01,0.84,0.00,24.77,29.15,31.27,5.84,29.67,1009.35,2043.05,3115.84,3107.98,3347.86,350.13,319.86,32.67,0000 0000 0000 0000 000000
2013-08-30 02:25:25,0.01,0.84,0.00,24.80,29.15,31.22,5.78,29.63,1009.33,2043.04,3115.64,3107.95,3347.67,349.14,318.92,32.67,0000 0000 0000 0000 000000
2013-08-30 02:26:26,0.05,0.84,0.00,24.81,29.15,31.20,5.85,29.71,1009.33,2043.04,3115.58,3107.91,3347.47,349.71,319.46,32.68,0000 0000 0000 0000 000000
2013-08-30 02:27:26,0.07,0.84,0.00,24.81,29.15,31.23,5.90,29.75,1009.32,2043.05,3115.50,3107.79,3347.32,349.75,319.28,32.68,0000 0000 0000 0000 000000
2013-08-30 02:28:26,0.07,0.84,0.00,24.82,29.15,31.22,6.02,29.83,1009.32,2043.03,3115.25,3107.68,3347.19,350.50,320.13,32.69,0000 0000 0000 0000 000000
2013-08-30 02:29:26,0.07,0.84,0.00,24.84,29.15,31.19,5.96,29.75,1009.31,2043.03,3115.09,3107.42,3347.08,349.97,319.35,32.70,0000 0000 0000 0000 000000
2013-08-30 02:30:27,0.08,0.84,0.00,24.86,29.16,31.22,5.77,29.71,1009.29,2043.03,3115.01,3107.20,3347.03,349.29,318.98,32.70,0000 0000 0000 0000 000000
2013-08-30 02:31:27,0.07,0.84,0.00,24.87,29.17,31.25,6.01,29.92,1009.29,2043.05,3114.96,3107.09,3347.01,350.26,319.84,32.71,0000 0000 0000 0000 000000
2013-08-30 02:32:27,0.03,0.84,0.00,24.89,29.17,31.25,5.74,29.83,1009.31,2043.05,3114.97,3107.06,3347.00,349.12,318.74,32.71,0000 0000 0000 0000 000000
2013-08-30 02:33:27,0.00,0.84,0.00,24.90,29.17,31.27,6.07,29.75,1009.30,2043.02,3114.94,3107.02,3346.99,350.50,319.80,32.72,0000 0000 0000 0000 000000
2013-08-30 02:34:28,0.00,0.84,0.00,24.89,29.17,31.28,5.86,29.92,1009.30,2043.01,3114.62,3107.00,3346.94,350.25,319.57,32.72,0000 0000 0000 0000 000000
2013-08-30 02:35:28,0.05,0.84,0.00,24.87,29.17,31.28,5.96,29.75,1009.29,2043.03,3114.29,3107.00,3346.83,350.22,319.76,32.73,0000 0000 0000 0000 000000
2013-08-30 02:36:28,0.06,0.85,0.00,24.85,29.17,31.27,5.90,29.92,1009.30,2043.02,3114.26,3106.99,3346.74,350.63,319.99,32.74,0000 0000 0000 0000 000000